Home   Weather   Christiansted   Past weeks

Flag for US Virgin Islands Past Weather in Christiansted, US Virgin Islands — Yesterday and Last 2 Weeks

Now
79 °F

Passing clouds.


Feels Like: 83 °F
Forecast: 75 / 84 °F
Wind: 7 mph from Northeast

Location: Christiansted / Henry E. Rohlsen Airport - Saint Croix

Current Time: Dec 10, 2016 at 10:08:13 pm

Latest Report: Dec 10, 2016 at 8:53 pm


Visibility: 10 mi

Pressure: 30.06 "Hg

Humidity: 84%

Dew Point: 74 °F

Location of ChristianstedLocation

Past Weather in Christiansted — Graph

°F

Christiansted Temperature Yesterday

Maximum temperature yesterday: 87 °F (at 11:53 am)
Minimum temperature yesterday: 77 °F (at 7:53 pm)
Average temperature yesterday: 81 °F

High & Low Weather Summary for the Past Weeks

 TemperatureHumidityPressure
High88 °F (Nov 26, 12:53 pm)100% (Dec 3, 12:45 am)30.10 "Hg (Dec 3, 12:45 am)
Low69 °F (Nov 29, 3:53 am)55% (Dec 5, 2:53 pm)29.75 "Hg (Nov 28, 2:53 pm)
Average79 °F82%29.95 "Hg
* Reported Nov 25 8:53 pm — Dec 10 8:53 pm, Christiansted, Weather by CustomWeather, © 2016

Note: Actual official high and low records may vary slightly from our data, if they occured in-between our weather recording intervals... More about our weather records

Advertising

Christiansted Weather History for the Previous 24 Hours

Scroll right to see more
 ConditionsComfort  
Time TempWeatherWind HumidityBarometerVisibility
8:53 pm
Sat, Dec 10
79 °FPassing clouds.7 mph84%30.06 "Hg10 mi
7:53 pm78 °FPassing clouds.7 mph84%30.05 "Hg10 mi
6:53 pm79 °FPassing clouds.7 mph79%30.04 "Hg10 mi
5:53 pm80 °FPassing clouds.9 mph74%30.02 "Hg10 mi
4:53 pm83 °FPassing clouds.12 mph70%30.02 "Hg10 mi
3:53 pm84 °FPassing clouds.14 mph67%30.01 "Hg10 mi
2:53 pm86 °FScattered clouds.16 mph67%30.01 "Hg10 mi
1:53 pm86 °FScattered clouds.14 mph67%30.03 "Hg10 mi
12:53 pm86 °FScattered clouds.14 mph67%30.05 "Hg10 mi
11:53 am86 °FScattered clouds.15 mph67%30.08 "Hg10 mi
10:53 am86 °FScattered clouds.15 mph67%30.09 "Hg10 mi
9:53 am85 °FSunny.15 mph68%30.10 "Hg10 mi
8:53 am83 °FScattered clouds.12 mph74%30.09 "Hg10 mi
7:53 am78 °FScattered clouds.5 mph84%30.08 "Hg10 mi
6:53 am74 °FScattered clouds.6 mph94%30.05 "Hg10 mi
5:53 am74 °FPassing clouds.6 mph91%30.03 "Hg10 mi
4:53 am75 °FClear.6 mph90%30.01 "Hg10 mi
3:53 am75 °FPassing clouds.6 mph90%30.01 "Hg10 mi
2:53 am75 °FClear.5 mph90%30.02 "Hg10 mi
1:53 am77 °FPassing clouds.6 mph88%30.03 "Hg10 mi
12:53 am78 °FClear.7 mph84%30.04 "Hg10 mi
11:53 pm
Fri, Dec 9
78 °FPassing clouds.7 mph84%30.05 "Hg10 mi
10:53 pm78 °FClear.6 mph87%30.05 "Hg10 mi
Weather by CustomWeather, © 2016

See weather overviewHow to use our weather pages